Location: Unspecified
(32.4633°N, 0.0000°E)
Time: 03:07:04
(UTC+00:00)

Sep Motor Cover - Visible Passes

Search period start: 04 April 2026 00:00
Search period end: 14 April 2026 00:00
Orbit: 837 x 1148 km, 71.0° (Epoch: 29 March)

Date Brightness Start Highest point End Pass type
(mag) Time Alt. Az. Time Alt. Az. Time Alt. Az.
4 Apr ? 19:06:20 10° N 19:12:21 32° ENE 19:16:47 15° ESE visible
4 Apr ? 20:53:41 10° NW 20:59:40 35° WSW 21:01:50 28° SW visible
5 Apr ? 19:36:31 10° NNW 19:43:19 68° ENE 19:47:38 21° SSE visible
5 Apr ? 21:26:20 10° WNW 21:29:45 15° W 21:32:42 11° SW visible
6 Apr ? 20:07:21 10° NNW 20:13:53 55° WSW 20:18:36 17° S visible
7 Apr ? 18:50:47 10° N 18:57:14 45° ENE 19:03:10 10° SE visible
7 Apr ? 20:39:03 10° NW 20:44:07 24° W 20:48:55 10° SSW visible
8 Apr ? 19:21:16 10° NNW 19:28:00 84° WSW 19:34:10 10° SSE visible
9 Apr ? 19:52:26 10° NW 19:58:25 37° WSW 20:03:59 10° SSW visible
10 Apr ? 20:24:57 10° WNW 20:28:31 15° W 20:31:57 10° SW visible
11 Apr ? 19:06:08 10° NNW 19:12:37 58° WSW 19:18:34 10° S visible
12 Apr ? 19:37:46 10° NW 19:42:52 25° W 19:47:41 10° SSW visible
